This demonstration page uses our WeatherBlox Daily Observations layout. Learn more.

Left ArrowRight Arrow

44.89941, -97.11507

Hourly Observations for January 3, 2016

Temp ( °F °C ) Dew Point ( °F °C ) Humidity (%) Winds ( mph kmh ) Pressure ( in mb ) Visibility ( mi km ) Precip ( " mm )
12:53 am 00:53 Clear 17 -8.3 13 -10.6 84 84 NNW 9 15 30.26 1025 10 16 0.00 0.00
1:53 am 01:53 Clear 13 -10.6 10 -12.2 88 88 NNW 7 11 30.27 1025 10 16 0.00 0.00
2:37 am 02:37 Partly Cloudy 13 -10.6 10 -12.2 88 88 N 9 15 30.36 1028 10 16 0.00 0.00
2:46 am 02:46 Mostly Cloudy 14 -10 11 -11.7 88 88 N 6 9 30.36 1028 10 16 0.00 0.00
2:53 am 02:53 Mostly Cloudy 15 -9.4 12 -11.1 88 88 N 7 11 30.28 1026 10 16 0.00 0.00
3:53 am 03:53 Cloudy with Mist and Fog 19 -7.2 16 -8.9 88 88 N 15 24 30.31 1026 5 8 0.00 0.00
4:53 am 04:53 Cloudy with Mist and Fog 19 -7.2 17 -8.3 92 92 N 13 20 30.31 1026 3 5 0.00 0.00
5:24 am 05:24 Cloudy with Mist and Fog 19 -7.2 17 -8.3 92 92 N 12 19 30.36 1028 3 4 0.00 0.00
5:41 am 05:41 Cloudy with Mist and Fog 19 -7.2 16 -8.9 88 88 N 13 20 30.36 1028 2 2 0.00 0.00
5:53 am 05:53 Cloudy with Mist and Fog 19 -7.2 16 -8.9 88 88 NNW 15 24 30.32 1027 1 2 0.00 0.00
6:24 am 06:24 Cloudy with Mist and Fog 18 -7.8 16 -8.9 92 92 NNW 12 19 30.39 1029 2 3 0.00 0.00
6:33 am 06:33 Cloudy with Mist and Fog 18 -7.8 16 -8.9 92 92 N 14 22 30.42 1030 2 3 0.00 0.00
6:53 am 06:53 Cloudy with Mist and Fog 18 -7.8 16 -8.9 92 92 N 15 24 30.35 1028 2 3 0.00 0.00
7:30 am 07:30 Cloudy with Mist and Fog 19 -7.2 16 -8.9 88 88 N 12 19 30.42 1030 2 3 0.00 0.00
7:41 am 07:41 Cloudy with Mist and Fog 19 -7.2 17 -8.3 92 92 NNE 13 20 30.42 1030 2 3 0.00 0.00
7:53 am 07:53 Cloudy with Mist and Fog 19 -7.2 17 -8.3 92 92 N 9 15 30.37 1029 2 2 0.00 0.00
8:01 am 08:01 Cloudy with Mist and Fog 19 -7.2 17 -8.3 92 92 NNE 10 17 30.42 1030 3 4 0.00 0.00
8:14 am 08:14 Cloudy with Mist and Fog 19 -7.2 17 -8.3 92 92 N 9 15 30.45 1031 1 2 0.00 0.00
8:42 am 08:42 Cloudy with Mist and Fog 20 -6.7 17 -8.3 89 89 NNE 9 15 30.45 1031 2 2 0.00 0.00
8:53 am 08:53 Cloudy with Mist and Fog 20 -6.7 17 -8.3 89 89 N 7 11 30.39 1029 2 3 0.00 0.00
9:18 am 09:18 Cloudy with Mist and Fog 20 -6.7 17 -8.3 89 89 N 9 15 30.45 1031 3 4 0.00 0.00
9:26 am 09:26 Cloudy with Mist and Fog 20 -6.7 17 -8.3 89 89 N 7 11 30.48 1032 3 5 0.00 0.00
9:53 am 09:53 Cloudy with Mist and Fog 20 -6.7 18 -7.8 92 92 N 9 15 30.42 1030 5 8 0.00 0.00
10:53 am 10:53 Cloudy 22 -5.6 19 -7.2 89 89 N 7 11 30.44 1031 9 14 0.00 0.00
11:53 am 11:53 Cloudy 23 -5 20 -6.7 88 88 NNE 8 13 30.43 1031 10 16 0.00 0.00
12:07 pm 12:07 Cloudy 23 -5 20 -6.7 88 88 NNE 7 11 30.45 1031 10 16 0.00 0.00
12:46 pm 12:46 Cloudy 23 -5 20 -6.7 88 88 NNW 7 11 30.45 1031 10 16 0.00 0.00
12:53 pm 12:53 Cloudy 23 -5 20 -6.7 88 88 NW 6 9 30.42 1030 10 16 0.00 0.00
1:53 pm 13:53 Cloudy 23 -5 20 -6.7 88 88 WNW 7 11 30.43 1030 10 16 0.00 0.00
2:53 pm 14:53 Cloudy 23 -5 19 -7.2 85 85 NW 7 11 30.43 1031 10 16 0.00 0.00
3:53 pm 15:53 Cloudy with Mist and Fog 22 -5.6 19 -7.2 89 89 NW 5 7 30.44 1031 3 5 0.00 0.00
4:00 pm 16:00 Cloudy with Mist and Fog 22 -5.6 20 -6.7 92 92 NNW 6 9 30.48 1032 2 3 0.00 0.00
4:07 pm 16:07 Cloudy with Mist and Fog 22 -5.6 20 -6.7 92 92 NW 6 9 30.48 1032 1 1 0.00 0.00
4:17 pm 16:17 Cloudy with Freezing Fog 22 -5.6 20 -6.7 92 92 NW 7 11 30.48 1032 0 0 0.00 0.00
4:53 pm 16:53 Mostly Cloudy with Freezing Fog 21 -6.1 19 -7.2 92 92 NW 6 9 30.45 1031 0 0 0.00 0.00
5:53 pm 17:53 Mostly Cloudy with Freezing Fog 20 -6.7 18 -7.8 92 92 NW 6 9 30.45 1031 0 0 0.00 0.00
6:53 pm 18:53 Mostly Cloudy with Freezing Fog 19 -7.2 17 -8.3 92 92 WNW 5 7 30.47 1032 0 0 0.00 0.00
7:53 pm 19:53 Mostly Cloudy with Freezing Fog 18 -7.8 15 -9.4 88 88 WSW 5 7 30.48 1032 0 0 0.00 0.00
8:07 pm 20:07 Mostly Cloudy with Freezing Fog 18 -7.8 15 -9.4 88 88 WSW 7 11 30.53 1034 1 1 0.00 0.00
8:53 pm 20:53 Mostly Cloudy with Freezing Fog 17 -8.3 14 -10 88 88 Calm 30.48 1032 0 0 0.00 0.00
9:53 pm 21:53 Mostly Cloudy with Freezing Fog 15 -9.4 12 -11.1 88 88 Calm 30.48 1032 0 0 0.00 0.00
10:53 pm 22:53 Mostly Cloudy with Freezing Fog 14 -10 12 -11.1 92 92 Calm 30.48 1032 0 0 0.00 0.00
11:53 pm 23:53 Mostly Cloudy with Freezing Fog 13 -10.6 10 -12.2 88 88 SSW 3 6 30.49 1033 0 0 0.00 0.00

Powered by AerisWeather